TimeEST,TemperatureF,Dew PointF,Humidity,Sea Level PressureIn,VisibilityMPH,Wind Direction,Wind SpeedMPH,Gust SpeedMPH,PrecipitationIn,Events,Conditions,WindDirDegrees,DateUTC
12:14 AM,30.2,23.0,75,29.79,10.0,NNE,17.3,28.8,N/A,,Clear,20,2013-03-06 05:14:00
12:34 AM,28.4,23.0,80,29.79,10.0,NNE,16.1,23.0,N/A,,Clear,20,2013-03-06 05:34:00
12:54 AM,28.4,23.0,80,29.79,10.0,NNE,15.0,23.0,N/A,,Clear,30,2013-03-06 05:54:00
1:14 AM,28.4,23.0,80,29.80,10.0,NNE,13.8,24.2,N/A,,Clear,20,2013-03-06 06:14:00
1:34 AM,28.4,23.0,80,29.80,10.0,NNE,19.6,25.3,N/A,,Scattered Clouds,20,2013-03-06 06:34:00
1:54 AM,30.2,24.8,80,29.80,10.0,NNE,17.3,25.3,N/A,,Scattered Clouds,30,2013-03-06 06:54:00
2:14 AM,28.4,23.0,80,29.81,10.0,NNE,13.8,23.0,N/A,,Scattered Clouds,20,2013-03-06 07:14:00
2:34 AM,28.4,24.8,86,29.81,10.0,NNE,13.8,25.3,N/A,,Scattered Clouds,20,2013-03-06 07:34:00
2:54 AM,28.4,24.8,86,29.81,10.0,North,16.1,25.3,N/A,,Clear,10,2013-03-06 07:54:00
3:15 AM,28.4,24.8,86,29.81,10.0,NNE,15.0,21.9,N/A,,Clear,20,2013-03-06 08:15:00
3:34 AM,28.4,24.8,86,29.82,10.0,NNE,16.1,20.7,N/A,,Clear,20,2013-03-06 08:34:00
3:54 AM,28.4,24.8,86,29.82,10.0,North,17.3,23.0,N/A,,Clear,10,2013-03-06 08:54:00
4:14 AM,28.4,24.8,86,29.83,10.0,NNE,12.7,19.6,N/A,,Clear,20,2013-03-06 09:14:00
4:34 AM,28.4,24.8,86,29.84,10.0,NNE,13.8,21.9,N/A,,Clear,20,2013-03-06 09:34:00
4:54 AM,28.4,24.8,86,29.86,10.0,NNE,12.7,20.7,N/A,,Clear,20,2013-03-06 09:54:00
5:14 AM,28.4,24.8,86,29.87,10.0,NNE,11.5,-,N/A,,Clear,20,2013-03-06 10:14:00
5:34 AM,28.4,24.8,86,29.88,10.0,NNE,15.0,-,N/A,,Clear,20,2013-03-06 10:34:00
5:54 AM,28.4,24.8,86,29.90,10.0,North,13.8,-,N/A,,Clear,10,2013-03-06 10:54:00
6:14 AM,28.4,24.8,86,29.91,10.0,North,10.4,-,N/A,,Clear,10,2013-03-06 11:14:00
6:34 AM,28.4,24.8,86,29.92,10.0,North,11.5,-,N/A,,Clear,10,2013-03-06 11:34:00
6:54 AM,28.4,24.8,86,29.93,10.0,North,11.5,18.4,N/A,,Clear,10,2013-03-06 11:54:00
7:14 AM,28.4,24.8,86,29.94,10.0,North,12.7,17.3,N/A,,Clear,10,2013-03-06 12:14:00
7:34 AM,30.2,24.8,80,29.96,10.0,NNE,10.4,17.3,N/A,,Clear,20,2013-03-06 12:34:00
7:54 AM,30.2,24.8,80,29.97,10.0,NNE,10.4,-,N/A,,Clear,20,2013-03-06 12:54:00
8:14 AM,30.2,24.8,80,29.98,10.0,NNE,8.1,-,N/A,,Clear,20,2013-03-06 13:14:00
8:34 AM,32.0,26.6,80,29.99,10.0,NNE,11.5,-,N/A,,Clear,20,2013-03-06 13:34:00
8:54 AM,33.8,26.6,75,30.00,10.0,NNE,11.5,16.1,N/A,,Clear,30,2013-03-06 13:54:00
9:14 AM,33.8,26.6,75,30.01,10.0,NE,12.7,-,N/A,,Clear,40,2013-03-06 14:14:00
9:34 AM,35.6,26.6,70,30.02,10.0,NE,11.5,18.4,N/A,,Clear,40,2013-03-06 14:34:00
9:55 AM,35.6,28.4,75,30.03,10.0,NE,11.5,-,N/A,,Clear,50,2013-03-06 14:55:00
10:14 AM,37.4,28.4,70,30.04,10.0,NE,10.4,16.1,N/A,,Clear,40,2013-03-06 15:14:00
10:34 AM,37.4,28.4,70,30.05,10.0,NE,9.2,-,N/A,,Clear,50,2013-03-06 15:34:00
10:54 AM,37.4,28.4,70,30.05,10.0,NE,9.2,-,N/A,,Scattered Clouds,50,2013-03-06 15:54:00
11:14 AM,39.2,28.4,65,30.06,10.0,NNE,9.2,-,N/A,,Scattered Clouds,30,2013-03-06 16:14:00
11:35 AM,39.2,28.4,65,30.06,10.0,NE,9.2,-,N/A,,Clear,50,2013-03-06 16:35:00
11:54 AM,39.2,28.4,65,30.06,10.0,NNE,9.2,-,N/A,,Scattered Clouds,30,2013-03-06 16:54:00
12:14 PM,39.2,28.4,65,30.07,10.0,NE,10.4,-,N/A,,Mostly Cloudy,50,2013-03-06 17:14:00
12:34 PM,39.2,28.4,65,30.07,10.0,NE,8.1,-,N/A,,Overcast,40,2013-03-06 17:34:00
12:54 PM,39.2,28.4,65,30.08,10.0,NNE,4.6,-,N/A,,Overcast,30,2013-03-06 17:54:00
1:14 PM,39.2,28.4,65,30.09,10.0,NNE,3.5,-,N/A,,Overcast,30,2013-03-06 18:14:00
1:34 PM,39.2,28.4,65,30.09,10.0,NW,3.5,-,N/A,,Overcast,320,2013-03-06 18:34:00
1:54 PM,39.2,28.4,65,30.09,10.0,NNW,3.5,-,N/A,,Overcast,330,2013-03-06 18:54:00
2:14 PM,39.2,28.4,65,30.09,10.0,NNW,4.6,-,N/A,,Overcast,340,2013-03-06 19:14:00
2:34 PM,41.0,28.4,61,30.09,10.0,ENE,3.5,-,N/A,,Overcast,70,2013-03-06 19:34:00
2:54 PM,41.0,28.4,61,30.09,10.0,East,4.6,-,N/A,,Overcast,80,2013-03-06 19:54:00
3:14 PM,41.0,28.4,61,30.09,10.0,NE,3.5,-,N/A,,Overcast,50,2013-03-06 20:14:00
3:34 PM,41.0,28.4,61,30.10,10.0,North,3.5,-,N/A,,Overcast,10,2013-03-06 20:34:00
3:54 PM,41.0,28.4,61,30.10,10.0,NE,3.5,-,N/A,,Overcast,50,2013-03-06 20:54:00
4:14 PM,41.0,30.2,65,30.09,10.0,SSE,4.6,-,N/A,,Overcast,160,2013-03-06 21:14:00
4:34 PM,35.6,30.2,81,30.10,10.0,South,6.9,-,N/A,,Overcast,170,2013-03-06 21:34:00
5:14 PM,35.6,30.2,81,30.12,10.0,South,6.9,-,N/A,,Scattered Clouds,180,2013-03-06 22:14:00
5:34 PM,35.6,30.2,81,30.13,10.0,South,8.1,-,N/A,,Mostly Cloudy,190,2013-03-06 22:34:00
5:54 PM,35.6,30.2,81,30.13,10.0,SSW,4.6,-,N/A,,Overcast,200,2013-03-06 22:54:00
6:14 PM,35.6,30.2,81,30.14,10.0,SSW,4.6,-,N/A,,Overcast,210,2013-03-06 23:14:00
6:34 PM,35.6,30.2,81,30.14,10.0,South,3.5,-,N/A,,Overcast,180,2013-03-06 23:34:00
6:54 PM,35.6,30.2,81,30.15,10.0,SW,4.6,-,N/A,,Overcast,220,2013-03-06 23:54:00
7:14 PM,35.6,28.4,75,30.15,10.0,SW,5.8,-,N/A,,Overcast,220,2013-03-07 00:14:00
7:34 PM,35.6,28.4,75,30.15,10.0,SW,3.5,-,N/A,,Mostly Cloudy,230,2013-03-07 00:34:00
7:54 PM,35.6,28.4,75,30.15,10.0,WNW,5.8,-,N/A,,Overcast,290,2013-03-07 00:54:00
8:14 PM,37.4,28.4,70,30.16,10.0,NW,9.2,-,N/A,,Overcast,310,2013-03-07 01:14:00
8:34 PM,35.6,28.4,75,30.16,10.0,NW,8.1,-,N/A,,Overcast,320,2013-03-07 01:34:00
8:54 PM,35.6,28.4,75,30.17,10.0,NW,9.2,-,N/A,,Overcast,320,2013-03-07 01:54:00
9:14 PM,35.6,28.4,75,30.17,10.0,NW,6.9,-,N/A,,Overcast,320,2013-03-07 02:14:00
9:34 PM,35.6,28.4,75,30.17,10.0,NW,8.1,-,N/A,,Overcast,320,2013-03-07 02:34:00
9:54 PM,35.6,28.4,75,30.18,10.0,NW,9.2,-,N/A,,Overcast,320,2013-03-07 02:54:00
10:14 PM,35.6,28.4,75,30.18,10.0,NNW,6.9,-,N/A,,Overcast,330,2013-03-07 03:14:00
10:34 PM,35.6,28.4,75,30.18,10.0,NNW,3.5,-,N/A,,Overcast,330,2013-03-07 03:34:00
10:54 PM,35.6,28.4,75,30.19,10.0,NNE,3.5,-,N/A,,Overcast,20,2013-03-07 03:54:00
11:14 PM,35.6,28.4,75,30.18,10.0,NE,3.5,-,N/A,,Overcast,40,2013-03-07 04:14:00
11:34 PM,35.6,28.4,75,30.18,10.0,Calm,Calm,-,N/A,,Overcast,0,2013-03-07 04:34:00
11:54 PM,35.6,30.2,81,30.18,10.0,Calm,Calm,-,N/A,,Overcast,0,2013-03-07 04:54:00